User: anonymous   Login
Location: Newark
(61.5000°N, 23.7667°E)
Time: 00:06:02
(UTC+00:00)
Language:

FO-29 - Orbit

View from above orbital plane
View from above orbital plane
View from above satellite
View from above satellite

Ground track
Ground track

The orbit data is extracted from the following two-line orbital elements,

1 24278U 96046B   19323.94518342 -.00000041  00000-0 -48353-5 0  9997
2 24278  98.5609  96.6062 0350080 200.0043 158.7082 13.53094868148669
Epoch (UTC): 19 November 2019 22:41:03
Eccentricity: 0.0350080
inclination: 98.5609°
perigee height: 800 km
apogee height: 1321 km
right ascension of ascending node: 96.6062°
argument of perigee: 200.0043°
revolutions per day: 13.53094868
mean anomaly at epoch: 158.7082°
orbit number at epoch: 14866

The dashed part of the orbit path shows where the satellite is in the earth's shadow,  

DLR